SCP
0 0 0 0 0 0 0 0 0 0 0 0 0 0 0 0 0 0 0 0 0 0 0 0 0 0 0 0 0 0 0 0 0 0 0 0 0 0 0 0 0 0 0 0 0 0 0 0 0
0 0 0 0 0 0 0 0 0 0 0 0 0 0 0 0 0 0 0 0 0 0 0 0 0 0 0 0 0 0 0 0 0 0 0 0 0 0 0 0 0 0 0 0 0 0 0 0 0
0 0 0 0 0 0 0 0 0 0 0 0 0 0 0 0 0 0 0 0 0 0 0 0 0 0 0 0 0 0 0 0 0 0 0 0 0 0 0 0 0 0 0 0 0 0 0 0 0
0 0 0 0 0 0 0 0 0 0 0 0 0 0 0 0 0 0 0 0 0 0 0 0 0 0 0 0 0 0 0 0 0 0 0 0 0 0 0 0 0 0 0 0 0 0 0 0 0
0 0 0 0 0 0 0 0 0 0 0 0 0 0 0 0 0 0 0 0 0 0 0 0 0 0 0 0 0 0 0 0 0 0 0 0 0 0 0 0 0 0 0 0 0 0 0 0 0
0 0 0 0 0 0 0 0 0 0 0 0 0 0 0 0 0 0 0 0 0 0 0 0 0 0 0 0 0 0 0 0 0 0 0 0 0 0 0 0 0 0 0 0 0 0 0 0 0
0 0 0 0 0 0 0 0 0 0 0 0 0 0 0 0 0 0 0 0 0 0 0 0 0 0 0 0 0 0 0 0 0 0 0 0 0 0 0 0 0 0 0 0 0 0 0 0 0
0 0 0 0 0 0 0 0 0 0 0 0 0 0 0 0 0 0 0 0 0 0 0 0 0 0 0 0 0 0 0 0 0 0 0 0 0 0 0 0 0 0 0 0 0 0 0 0 0
0 0 0 0 0 0 0 0 0 0 0 0 0 0 0 0 0 0 0 0 0 0 0 0 0 0 0 0 0 0 0 0 0 0 0 0 0 0 0 0 0 0 0 0 0 0 0 0 0
0 0 0 0 0 0 0 0 0 0 0 0 0 0 0 0 0 0 0 0 0 0 0 0 0 0 0 0 0 0 0 0 0 0 0 0 0 0 0 0 0 0 0 0 0 0 0 0 0
0 0 0 0 0 0 0 0 0 0 0 0 0 0 0 0 0 0 0 0 0 0 0 0 0 0 0 0 0 0 0 0 0 0 0 0 0 0 0 0 0 0 0 0 0 0 0 0 0
0 0 0 0 0 0 0 0 0 0 0 0 0 0 0 0 0 0 0 0 0 0 0 0 0 0 0 0 0 0 0 0 0 0 0 0 0 0 0 0 0 0 0 0 0 0 0 0 0
0 0 0 0 0 0 0 0 0 0 0 0 0 0 0 0 0 0 0 0 0 0 0 0 0 0 0 0 0 0 0 0 0 0 0 0 0 0 0 0 0 0 0 0 0 0 0 0 0
0 0 0 0 0 0 0 0 0 0 0 0 0 0 0 0 0 0 0 0 0 0 0 0 0 0 0 0 0 0 0 0 0 0 0 0 0 0 0 0 0 0 0 0 0 0 0 0 0
0 0 0 0 0 0 0 0 0 0 0 0 0 0 0 0 0 0 0 0 0 0 0 0 0 0 0 0 0 0 0 0 0 0 0 0 0 0 0 0 0 0 0 0 0 0 0 0 0
0 0 0 0 0 0 0 0 0 0 0 0 0 0 0 0 0 0 0 0 0 0 0 0 0 0 0 0 0 0 0 0 0 0 0 0 0 0 0 0 0 0 0 0 0 0 0 0 0
0 0 0 0 0 0 0 0 0 0 0 0 0 0 0 0 0 0 0 0 0 0 0 0 0 0 0 0 0 0 0 0 0 0 0 0 0 0 0 0 0 0 0 0 0 0 0 0 0
0 0 0 0 0 0 0 0 0 0 0 0 0 0 0 0 0 0 0 0 0 0 0 0 0 0 0 0 0 0 0 0 0 0 0 0 0 0 0 0 0 0 0 0 0 0 0 0 0
0 0 0 0 0 0 0 0 0 0 0 0 0 0 0 0 0 0 0 0 0 0 0 0 0 0 0 0 0 0 0 0 0 0 0 0 0 0 0 0 0 0 0 0 0 0 0 0 0
0 0 0 0 0 0 0 0 0 0 0 0 0 0 0 0 0 0 0 0 0 0 0 0 0 0 0 0 0 0 0 0 0 0 0 0 0 0 0 0 0 0 0 0 0 0 0 0 0
0 0 0 0 0 0 0 0 0 0 0 0 0 0 0 0 0 0 0 0 0 0 0 0 0 0 0 0 0 0 0 0 0 0 0 0 0 0 0 0 0 0 0 0 0 0 0 0 0
0 0 0 0 0 0 0 0 0 0 0 0 0 0 0 0 0 0 0 0 0 0 0 0 0 0 0 0 0 0 0 0 0 0 0 0 0 0 0 0 0 0 0 0 0 0 0 0 0
0 0 0 0 0 0 0 0 0 0 0 0 0 0 0 0 0 0 0 0 0 0 0 0 0 1 1 1 1 0 0 0 0 0 0 0 0 0 0 0 0 0 0 0 0 0 0 0 0
0 0 0 0 0 0 0 0 0 0 0 0 0 0 0 0 0 0 0 0 0 0 0 0 0 1 1 1 1 1 0 0 0 0 0 0 0 0 0 0 0 0 0 0 0 0 0 0 0
0 0 0 0 0 0 0 0 0 0 0 0 0 0 0 0 0 0 0 0 0 0 0 0 1 1 1 1 1 1 0 0 0 0 0 0 0 0 0 0 0 0 0 0 0 0 0 0 0
0 0 0 0 0 0 0 0 0 0 0 0 0 0 0 0 0 0 0 0 0 0 0 0 1 1 1 1 0 0 0 0 0 0 0 0 0 0 0 0 0 0 0 0 0 0 0 0 0
0 0 0 0 0 0 0 0 0 0 0 0 0 0 0 0 0 0 0 0 0 0 0 0 1 1 1 1 0 0 0 0 0 0 0 0 0 0 0 0 0 0 0 0 0 0 0 0 0
0 0 0 0 0 0 0 0 0 0 0 0 0 0 0 0 0 0 0 0 0 0 0 0 0 0 0 0 0 0 0 0 0 0 0 0 0 1 0 0 0 0 0 0 0 0 0 0 0
0 0 0 0 0 0 0 0 0 0 0 0 0 0 0 0 0 0 1 1 1 0 0 0 0 0 0 0 0 0 0 0 0 0 0 1 1 1 0 0 0 0 0 0 0 0 0 0 0
0 0 0 0 0 0 0 0 0 0 0 0 0 0 0 0 0 0 1 1 1 1 1 1 1 0 0 0 0 0 0 0 0 0 0 1 1 1 0 0 0 0 0 1 1 0 0 0 0
Wind_Speed
12 9 6 5 6 3 10 9 8 7 6 7 7 5 6 7 7 7 6 5 5 5 7 8 8 8 8 8 8 9 9 9 9 10 10 10 12 13 13 13 14 15 16 16 15 16 16 17 16
8 5 6 6 2 7 10 8 9 9 7 5 5 5 5 7 7 7 6 5 5 6 6 8 9 8 8 8 8 8 8 9 10 11 11 11 13 13 14 14 14 15 15 15 16 16 16 16 16
6 6 6 2 7 9 10 8 8 7 6 4 4 5 6 6 5 5 6 6 6 6 7 9 8 8 8 8 8 8 9 9 10 10 11 12 13 13 14 14 14 15 15 15 15 15 15 15 15
5 6 5 2 11 10 8 7 6 6 6 5 5 7 7 7 4 6 8 7 7 7 7 10 8 8 8 7 8 8 8 9 10 10 11 12 12 13 14 14 14 15 15 15 15 15 15 14 14
6 5 1 8 11 9 7 7 4 5 5 5 5 8 8 7 7 9 8 7 7 7 8 10 9 8 8 8 8 8 8 8 9 10 11 12 13 13 14 14 14 14 14 14 14 14 13 13 13
5 3 4 8 10 7 7 5 4 6 7 6 6 8 8 7 8 8 8 7 7 7 7 9 9 7 8 8 8 8 8 9 9 10 11 12 12 12 12 13 13 13 13 13 13 13 12 12 11
5 3 7 9 8 8 6 4 4 6 6 6 5 7 8 8 7 7 8 7 6 7 7 7 8 8 8 7 7 7 7 8 10 10 10 11 11 11 11 11 12 12 12 12 12 12 11 11 10
4 2 6 8 8 9 7 5 5 5 7 7 3 5 8 8 8 7 7 7 6 6 6 6 6 6 6 8 8 8 8 10 10 11 10 10 11 11 11 10 11 11 12 11 11 11 11 10 9
6 1 7 8 7 8 6 6 6 6 8 6 5 7 10 11 9 8 8 7 6 5 5 5 6 5 5 6 7 7 9 9 9 9 9 7 6 8 8 11 10 10 10 10 10 10 10 9 10
4 3 9 6 6 6 5 5 6 6 7 7 8 10 11 11 9 8 7 7 7 6 6 5 5 5 5 4 4 4 5 6 5 6 6 5 5 5 7 10 9 9 9 10 9 9 10 8 7
1 5 5 4 4 4 5 5 5 5 5 6 9 11 11 10 8 7 7 6 7 6 5 6 6 4 3 3 3 3 3 4 5 6 5 4 4 4 4 4 7 7 8 6 8 8 4 3 3
1 3 3 3 3 3 4 6 5 3 6 7 9 11 11 10 8 7 7 6 6 5 5 5 6 4 3 2 3 3 3 3 3 4 4 4 3 3 3 3 4 3 3 3 3 3 3 3 3
1 2 3 3 3 4 4 5 5 5 6 8 10 11 10 9 8 7 6 6 6 5 5 5 4 4 3 2 1 3 3 3 4 3 4 3 3 3 3 3 2 3 3 3 3 3 3 3 3
2 1 2 4 4 4 4 5 4 6 8 9 10 10 9 9 8 8 7 6 6 5 5 5 4 5 3 3 2 2 2 3 3 3 4 2 3 3 2 3 2 2 2 2 2 3 3 2 2
3 3 4 4 3 3 3 4 4 8 9 10 10 9 9 8 8 7 7 7 7 6 5 5 5 5 3 3 2 2 2 3 3 3 3 2 2 3 2 2 2 2 2 3 2 3 2 2 3
6 6 4 4 3 3 5 3 7 9 9 9 9 9 9 8 8 7 7 7 6 6 6 5 4 5 4 3 2 2 2 2 2 2 3 3 2 1 1 1 2 2 1 2 2 1 2 2 1
6 4 2 4 3 3 4 1 7 9 9 9 9 10 9 9 9 8 8 8 7 7 7 6 5 5 5 4 3 2 2 2 2 2 2 2 2 1 1 1 2 1 1 1 1 2 1 1 1
2 2 1 1 3 4 4 2 5 9 9 9 9 9 10 10 9 9 8 8 7 7 7 7 6 5 5 4 3 2 2 2 2 2 2 2 2 2 1 1 1 1 1 1 1 1 1 0 0
4 4 2 0 1 4 4 4 4 8 9 9 9 10 10 9 10 9 9 8 8 8 7 7 7 6 5 4 4 3 3 2 2 2 2 2 2 2 1 1 2 1 1 1 1 1 2 1 1
6 6 3 2 2 4 4 5 4 7 9 9 9 10 10 10 10 10 10 10 9 9 8 8 8 7 7 5 3 2 2 2 2 1 2 3 3 3 3 2 2 2 1 2 1 1 1 0 1
7 6 4 3 3 6 6 6 6 7 7 8 9 10 10 11 12 12 12 11 10 10 9 8 8 8 7 6 4 4 3 3 3 3 3 3 3 3 2 2 2 2 3 2 2 2 2 1 1
6 3 4 5 7 4 5 4 4 6 8 8 9 10 10 11 11 12 12 12 11 11 10 9 9 8 8 7 6 6 4 3 3 2 2 2 3 3 3 3 3 3 2 2 3 2 2 2 2
4 2 5 7 7 7 6 6 3 6 6 6 7 8 9 10 11 12 12 12 11 11 10 10 9 9 9 8 7 6 5 4 3 3 2 2 2 3 3 3 2 3 2 2 1 1 3 3 3
4 5 6 8 8 8 4 7 3 3 3 4 5 7 8 9 10 11 11 11 11 11 10 10 10 9 9 9 8 7 6 4 3 3 3 3 2 2 3 3 2 3 2 2 3 3 4 3 3
9 9 7 8 7 5 3 6 2 1 1 3 3 5 7 8 9 10 11 12 11 11 11 10 10 9 9 9 8 7 7 6 5 5 4 3 2 2 2 2 2 2 2 3 3 3 3 3 3
11 11 8 6 5 4 6 6 1 1 0 1 2 4 6 8 9 10 10 11 11 11 11 10 10 9 10 9 8 7 7 6 5 5 4 3 3 2 2 2 2 2 2 3 3 3 3 3 3
10 11 10 9 8 7 5 4 4 3 3 2 2 3 5 6 8 9 9 10 10 11 11 11 10 9 9 9 8 7 7 5 4 4 4 3 3 2 3 3 3 3 3 3 3 2 3 3 4
9 8 7 9 8 9 7 7 3 3 2 2 2 2 3 5 7 8 8 9 9 10 10 10 10 9 9 8 7 6 7 6 5 5 4 3 3 2 3 3 3 3 3 3 3 3 3 3 3
9 10 9 9 9 9 7 2 2 1 1 1 1 1 2 4 6 7 7 7 8 9 10 10 9 9 9 8 7 6 6 6 6 5 5 4 3 3 3 3 3 3 3 3 3 4 3 4 3
9 10 11 10 9 9 10 2 3 0 0 0 0 0 1 3 5 6 7 7 7 8 8 9 8 9 8 8 8 7 6 6 6 6 5 5 4 5 4 4 4 4 3 3 4 4 4 4 4
Wind_Direction
177 186 211 235 236 86 62 57 54 60 56 46 40 32 40 31 21 65 80 81 81 87 91 94 79 78 74 72 72 73 75 77 78 81 86 91 104 111 115 117 121 122 120 119 120 118 117 118 122
176 189 230 242 314 70 65 55 56 52 68 71 59 53 61 63 56 87 101 90 97 90 91 83 84 80 77 75 73 74 77 78 79 85 89 91 101 104 112 113 117 121 120 120 119 117 118 118 119
189 227 261 272 47 51 61 61 69 72 73 60 64 52 47 66 82 96 101 115 106 90 90 89 86 81 78 75 74 75 78 80 82 86 91 94 101 106 111 115 116 119 120 119 118 117 116 116 117
221 226 233 55 63 57 55 66 83 90 78 62 75 83 72 52 63 107 116 119 109 106 101 94 90 83 79 77 77 77 79 81 84 87 90 95 101 106 109 110 113 116 118 118 118 117 117 117 119
242 258 128 76 68 64 62 66 72 67 71 77 80 89 84 67 82 109 121 118 109 103 101 100 97 89 81 78 78 78 79 83 87 90 92 93 98 103 107 111 112 115 117 119 118 118 118 120 122
248 259 56 69 72 71 72 73 73 69 82 90 99 100 86 93 101 110 115 113 107 105 102 105 108 96 87 80 78 75 79 87 93 96 98 97 97 101 107 111 115 119 122 121 121 123 126 124 124
298 2 56 65 73 75 69 68 61 71 86 89 102 101 108 113 110 118 116 112 108 107 108 107 116 116 107 92 81 75 83 97 100 100 102 103 103 104 106 109 114 119 122 123 124 128 128 125 128
299 293 74 69 68 72 83 86 72 74 84 92 99 105 121 123 126 123 119 117 114 110 107 107 103 105 115 109 95 82 84 103 108 106 108 110 115 118 119 117 110 117 122 126 128 128 128 129 134
263 273 63 55 56 77 99 103 96 95 105 103 86 81 109 128 136 135 129 125 118 113 111 110 111 105 101 96 103 103 99 108 121 117 121 129 118 115 121 100 111 119 124 127 130 133 136 145 148
265 39 55 44 43 75 105 105 115 130 121 115 111 105 120 139 147 144 137 133 128 127 125 116 109 101 99 94 98 92 93 96 95 93 105 105 100 97 101 114 121 126 131 139 142 152 166 188 154
349 32 43 56 53 81 115 120 126 133 119 123 133 136 143 147 149 147 137 129 125 132 128 125 115 116 108 104 100 87 87 93 98 95 95 90 96 108 112 123 135 139 153 146 152 171 160 144 116
70 50 29 51 71 103 111 117 120 101 87 111 133 143 149 155 155 152 141 136 132 133 128 120 121 119 100 82 99 110 107 101 95 96 90 95 88 87 94 101 107 120 115 119 132 126 119 124 125
130 71 69 85 110 109 126 122 115 111 116 125 139 150 157 160 156 151 142 144 141 142 137 123 126 122 124 119 110 108 102 100 102 100 95 93 103 86 82 79 85 98 108 131 126 116 120 133 143
66 104 115 119 121 136 139 131 143 128 137 141 151 159 162 162 161 157 158 162 161 158 147 137 146 138 141 142 133 114 121 120 104 100 98 93 91 88 95 103 86 85 87 82 108 119 127 119 103
194 178 155 138 149 148 173 155 156 142 149 153 160 164 166 168 170 173 171 172 171 166 158 158 157 146 152 152 163 148 135 123 114 111 114 110 98 103 103 96 107 88 95 108 114 105 112 128 129
209 212 177 133 160 171 237 110 130 154 164 164 168 170 175 178 182 180 176 177 174 168 165 175 173 155 156 158 169 144 137 122 128 127 129 125 109 123 121 91 88 92 113 111 118 108 93 92 114
207 220 175 141 168 196 241 106 132 168 179 175 178 178 182 181 188 184 182 179 178 176 174 178 179 169 167 162 169 162 146 147 160 152 146 139 156 151 153 91 77 137 105 102 130 103 83 108 115
226 239 207 183 158 226 240 226 157 176 193 188 185 185 187 187 187 184 185 182 179 177 177 180 179 179 176 171 173 169 166 165 171 166 156 174 178 169 206 155 142 199 141 136 95 128 146 215 236
270 262 256 214 165 247 250 247 196 186 199 200 195 192 193 192 183 182 185 184 182 180 181 183 186 176 180 182 187 177 173 179 177 179 164 191 198 174 215 217 169 213 156 176 170 188 173 174 160
246 247 237 188 177 250 262 258 220 197 206 207 204 199 199 192 185 184 188 187 186 184 186 184 186 183 187 182 187 190 189 198 184 184 170 196 192 197 194 207 222 192 187 188 200 212 262 165 168
244 258 262 257 216 216 253 233 204 190 204 208 210 208 202 197 193 189 191 193 190 188 189 190 187 184 189 184 185 182 183 201 186 191 189 195 203 205 215 205 227 222 224 179 201 206 221 238 217
246 255 262 248 245 227 252 257 185 191 197 204 208 208 203 196 195 192 191 195 195 190 187 189 186 186 185 185 194 195 201 202 199 204 186 198 207 216 210 210 213 230 232 194 215 179 220 236 233
267 254 246 250 254 257 234 259 183 183 206 204 207 209 205 197 193 192 192 192 195 192 186 184 184 187 186 190 191 202 208 206 200 200 189 223 205 214 213 212 209 212 219 208 250 234 241 238 260
202 209 222 232 243 243 246 262 233 185 227 228 209 203 200 196 191 191 190 188 192 190 188 183 182 187 188 190 193 199 207 209 208 210 203 210 197 197 203 204 205 209 208 201 220 233 229 243 263
218 230 226 220 222 235 193 252 266 0 269 256 223 198 192 192 190 187 187 187 189 190 189 185 181 186 188 191 195 197 204 205 208 219 212 221 212 194 178 201 205 212 206 213 221 222 238 237 239
222 240 251 259 251 213 198 244 191 118 220 231 208 180 182 185 186 186 185 185 186 187 186 185 183 188 190 191 194 198 202 210 211 216 230 216 228 199 167 190 191 205 215 215 216 228 223 222 234
221 233 259 265 263 264 234 224 203 196 206 198 170 157 166 176 180 181 181 183 183 184 184 185 183 187 191 190 189 195 201 213 218 213 224 224 218 200 180 192 193 201 208 220 223 230 233 227 236
254 243 235 250 257 257 237 235 236 201 218 214 192 170 166 170 176 177 175 178 177 178 177 180 180 183 186 188 191 187 194 201 210 217 216 225 223 212 195 201 204 211 213 213 222 221 216 224 230
208 222 235 249 258 264 259 233 57 251 246 259 225 184 179 176 174 172 169 169 168 171 173 176 179 182 185 188 187 192 189 192 197 203 205 205 206 200 207 208 211 216 214 211 215 228 219 226 233
234 230 228 237 239 252 269 254 88 56 180 347 328 123 146 168 166 162 161 160 165 170 172 172 177 182 185 185 185 189 190 193 199 202 204 200 201 204 203 206 210 215 213 216 221 231 228 228 231